[[{"header":{"parameterUnit":"m.s-1","parameterCategory":1,"la1":30.2991,"la2":30.254,"lo1":-89.0895,"lo2":-89.0444,"dy":0.0017,"dx":0.0017,"nx":28,"ny":28,"refTime":"2024-03-26T09:00:00:Z","depth":0,"parameterNumber":2,"parameterNumberName":"U-component_of_WINDS"},"data":[0,0,0,0,0,0,0,0,0,0,0,0,0,0,0,0,0,0,0,0,0,0,0,0,0,0,0,0,0,0,0,0,0,0,0,0,0,0,0,0,0,0,0,0,0,0,0,0,0,0,0,0,0,0,0,0,0,0,1.0935,1.0935,0,1.0949,1.095,1.095,1.0968,1.0968,1.0968,1.0968,1.0984,1.0985,1.0985,0,0,0,0,0,0,0,0,0,0,0,0,0,1.0924,1.0924,1.0935,1.0935,1.0935,1.0949,1.095,1.095,1.0967,1.0968,1.0968,1.0968,1.0984,1.0985,1.0985,0,0,0,0,0,0,0,0,0,0,0,0,0,1.0933,1.0924,1.0935,1.0945,1.0947,1.0949,1.095,1.095,1.0967,1.0968,1.0968,1.0969,1.0984,1.0985,1.0985,1.0978,0,0,1.0986,1.0986,0,0,0,0,0,0,0,0,1.0932,1.0933,1.0944,1.0945,1.0946,1.0957,1.0952,1.0959,1.0967,1.096,1.0968,1.0969,1.0975,1.0976,1.0978,1.0979,1.098,1.0986,1.0986,1.0986,1.0986,0,0,0,0,0,0,0,1.0932,1.0933,1.094,1.0944,1.0945,1.0951,1.0952,1.0953,1.0965,1.096,1.0962,1.0963,1.0976,1.0978,1.0979,1.098,1.0986,1.0986,1.0986,1.0986,1.0979,1.0978,0,0,0,0,0,0,1.0929,1.0932,1.094,1.0941,1.094,1.095,1.0952,1.0953,1.0965,1.0967,1.0963,1.0964,1.0977,1.0978,1.0979,1.0973,1.0986,1.0986,1.0986,1.0979,1.0978,1.0978,0,0,0,0,0,0,1.0929,1.093,1.0939,1.0937,1.0938,1.095,1.0951,1.0953,1.0955,1.0967,1.0969,1.0962,1.0977,1.0979,1.0979,1.0974,1.0986,1.0987,1.0979,1.0979,1.0978,1.096,0,0,0,0,0,0,1.0928,1.0929,1.0926,1.0937,1.0939,1.0938,1.0951,1.0953,1.0955,1.0957,1.0967,1.0969,1.0978,1.0978,1.0979,1.0975,1.0987,1.098,1.0979,1.0978,1.0962,1.0959,1.0958,0,0,0,0,0,1.0928,1.092,1.0926,1.0927,1.0935,1.0937,1.0939,1.0948,1.0955,1.0952,1.096,1.0969,1.0975,1.0978,1.0979,1.0975,1.098,1.0979,1.0978,1.0962,1.096,1.0958,0,0,0,0,0,0,1.0909,1.0922,1.0928,1.0923,1.0929,1.094,1.0937,1.0945,1.0949,1.0951,1.0964,1.0966,1.0964,1.097,1.0973,1.097,1.0979,1.0978,1.0966,1.0964,1.0962,1.096,1.0987,0,0,0,0,0,1.0904,1.0905,1.0916,1.0911,1.0914,1.0925,1.0927,1.0934,1.0941,1.0943,1.0951,1.0957,1.0961,1.0963,1.0967,1.0963,1.0966,1.0961,1.0959,1.0957,1.0956,1.0956,1.0954,1.0975,1.0975,1.0975,0,0,1.0894,1.0901,1.0901,1.0908,1.0913,1.0914,1.0927,1.0927,1.0928,1.0943,1.0944,1.095,1.0958,1.0957,1.0957,1.0961,1.0951,1.0956,1.0955,1.0955,1.0955,1.0953,1.0951,1.0975,1.0975,1.0975,0,0,1.0876,1.0882,1.0879,1.0884,1.0892,1.09,1.09,1.091,1.0915,1.0916,1.0927,1.093,1.0935,1.0941,1.0945,1.0932,1.0941,1.0933,1.0923,1.0923,1.0921,1.0919,1.0916,1.0914,1.0933,1.0933,1.0933,0,1.0863,1.0864,1.0876,1.0876,1.0879,1.0894,1.0891,1.0896,1.0905,1.0908,1.0913,1.0921,1.0928,1.0929,1.0926,1.0928,1.0929,1.0932,1.092,1.0919,1.0918,1.0914,1.0913,1.0932,1.0932,1.0932,1.0932,0,1.0848,1.0849,1.0846,1.0855,1.0858,1.0856,1.0869,1.0871,1.0879,1.0887,1.0889,1.0897,1.0904,1.0905,1.0912,1.0907,1.091,1.0918,1.0927,1.0914,1.0911,1.091,1.093,1.0931,1.0931,1.0931,0,0,1.0816,1.0833,1.0832,1.0837,1.0848,1.085,1.085,1.0857,1.0859,1.0865,1.0866,1.0872,1.088,1.0884,1.0893,1.0893,1.0884,1.09,1.0901,1.0897,1.088,1.0874,1.0872,1.089,1.089,1.0889,1.0879,0,1.0801,1.0802,1.0813,1.0811,1.0813,1.0828,1.0829,1.0837,1.0845,1.0849,1.0858,1.0862,1.0871,1.0874,1.0875,1.0884,1.088,1.0885,1.0892,1.0892,1.0888,1.087,1.0863,1.0853,1.0878,1.0878,1.0878,0,1.0782,1.0788,1.0786,1.0799,1.0801,1.0801,1.0809,1.0812,1.0822,1.0828,1.0834,1.0844,1.0847,1.0856,1.0861,1.0864,1.0868,1.0874,1.0873,1.0874,1.0883,1.087,1.085,1.0848,1.0876,1.0876,1.0876,0,1.076,1.0767,1.0768,1.0772,1.0787,1.0787,1.0793,1.0804,1.0807,1.0815,1.0818,1.0826,1.083,1.0836,1.0849,1.0854,1.0853,1.0862,1.0858,1.0858,1.0856,1.0856,1.0836,1.0859,1.0859,1.0859,1.0859,0,1.0741,1.0739,1.0758,1.0758,1.0758,1.0772,1.0771,1.0779,1.0789,1.0792,1.0806,1.0808,1.0825,1.083,1.084,1.0843,1.0845,1.0851,1.0853,1.0849,1.0848,1.0851,1.0852,1.0859,1.0859,1.0859,1.0859,0,1.0715,1.0727,1.0729,1.0744,1.0748,1.0747,1.076,1.0761,1.0771,1.0775,1.0777,1.0792,1.0799,1.0813,1.0823,1.083,1.0831,1.0836,1.0827,1.0829,1.0824,1.0824,1.0805,1.0803,1.0827,1.0827,1.0827,0,1.0701,1.0701,1.0716,1.0719,1.0725,1.0729,1.0734,1.0749,1.0753,1.0766,1.0766,1.0774,1.0781,1.0791,1.0804,1.0813,1.0818,1.081,1.0819,1.0815,1.0818,1.0818,1.0818,1.0808,1.0808,1.0807,1.0807,0,1.0677,1.0683,1.0689,1.0697,1.0702,1.0709,1.0717,1.0719,1.0737,1.0741,1.0748,1.0754,1.0765,1.0773,1.0784,1.0792,1.0803,1.0805,1.0804,1.08,1.0795,1.0798,1.0822,1.0805,1.0805,1.0805,1.0805,1.0805,1.0657,1.0657,1.0669,1.0675,1.0683,1.0691,1.0693,1.0704,1.071,1.072,1.0729,1.0736,1.0748,1.0764,1.0772,1.0778,1.0783,1.0782,1.0782,1.0781,1.078,1.0794,1.078,1.078,1.078,1.078,1.078,0,1.0633,1.0641,1.0647,1.0658,1.0664,1.0674,1.0684,1.0688,1.0694,1.0704,1.0711,1.0721,1.0729,1.0743,1.0753,1.0756,1.0761,1.0758,1.0758,1.076,1.0774,1.0774,1.0754,1.0754,1.0754,1.0754,1.0754,1.0754,1.0621,1.0623,1.0631,1.0638,1.0647,1.0654,1.0659,1.0667,1.0675,1.0685,1.0692,1.0701,1.0714,1.0725,1.0734,1.0738,1.0742,1.0737,1.0742,1.0756,1.0758,1.0761,1.076,1.0737,1.0737,1.0727,1.0727,1.0727]},{"header":{"parameterUnit":"m.s-1","parameterCategory":1,"la1":30.2991,"la2":30.254,"lo1":-89.0895,"lo2":-89.0444,"dy":0.0017,"dx":0.0017,"nx":28,"ny":28,"refTime":"2024-03-26T09:00:00:Z","depth":0,"parameterNumber":3,"parameterNumberName":"V-component_of_WINDS"},"data":[0,0,0,0,0,0,0,0,0,0,0,0,0,0,0,0,0,0,0,0,0,0,0,0,0,0,0,0,0,0,0,0,0,0,0,0,0,0,0,0,0,0,0,0,0,0,0,0,0,0,0,0,0,0,0,0,0,0,-4.0278,-4.0277,0,-4.0201,-4.02,-4.0199,-4.0208,-4.0209,-4.021,-4.0211,-4.0128,-4.0125,-4.0122,0,0,0,0,0,0,0,0,0,0,0,0,0,-4.0427,-4.0424,-4.0278,-4.0277,-4.0276,-4.0201,-4.02,-4.0199,-4.0208,-4.0209,-4.0211,-4.0212,-4.0129,-4.0125,-4.0121,0,0,0,0,0,0,0,0,0,0,0,0,0,-4.0357,-4.0424,-4.0278,-4.0271,-4.027,-4.0202,-4.02,-4.0199,-4.0207,-4.0209,-4.0211,-4.0213,-4.0131,-4.0126,-4.0121,-4.0053,0,0,-4.0105,-4.0103,0,0,0,0,0,0,0,0,-4.0361,-4.0352,-4.0273,-4.0272,-4.027,-4.0216,-4.0222,-4.015,-4.0207,-4.0231,-4.0211,-4.0214,-4.0156,-4.0149,-4.013,-4.0049,-4.0045,-4.0105,-4.0102,-4.01,-4.0098,0,0,0,0,0,0,0,-4.0366,-4.0355,-4.0248,-4.0272,-4.027,-4.0271,-4.0263,-4.0209,-4.0184,-4.0229,-4.0229,-4.022,-4.0155,-4.0135,-4.0128,-4.0044,-4.0105,-4.01,-4.0097,-4.0095,-3.9901,-3.9899,0,0,0,0,0,0,-4.0373,-4.0359,-4.025,-4.0245,-4.0321,-4.0266,-4.0258,-4.0231,-4.0184,-4.0179,-4.0219,-4.0221,-4.0143,-4.0134,-4.0125,-4.0041,-4.01,-4.0095,-4.0092,-3.9903,-3.9901,-3.9898,0,0,0,0,0,0,-4.0377,-4.0364,-4.0253,-4.0302,-4.0288,-4.0262,-4.0232,-4.0229,-4.0209,-4.0177,-4.0172,-4.0203,-4.0144,-4.0132,-4.0071,-4.0038,-4.0093,-4.0088,-3.9906,-3.9903,-3.99,-3.9873,0,0,0,0,0,0,-4.0381,-4.0365,-4.034,-4.0302,-4.0286,-4.0201,-4.0231,-4.0226,-4.0201,-4.0203,-4.0161,-4.0155,-4.0144,-4.0078,-4.0066,-4.0032,-4.0084,-3.9909,-3.9904,-3.9901,-3.9876,-3.9869,-3.9863,0,0,0,0,0,-4.0386,-4.0334,-4.0338,-4.0325,-4.0254,-4.0199,-4.019,-4.0179,-4.0198,-4.0172,-4.0151,-4.0157,-4.0044,-4.0072,-4.0058,-4.0022,-3.9911,-3.9906,-3.9901,-3.9879,-3.987,-3.9863,0,0,0,0,0,0,-4.0367,-4.0329,-4.0333,-4.0268,-4.0237,-4.0201,-4.0167,-4.017,-4.0132,-4.0135,-4.0122,-4.0113,-4.005,-4.003,-4.0061,-3.9953,-3.998,-3.9972,-3.9968,-3.9959,-3.9953,-3.9957,-4.008,0,0,0,0,0,-4.0356,-4.0316,-4.0285,-4.023,-4.0214,-4.0194,-4.0169,-4.0164,-4.013,-4.0117,-4.0092,-4.0058,-4.0014,-3.9986,-3.9945,-3.9874,-3.9864,-3.9843,-3.9836,-3.9831,-3.9823,-3.9782,-3.9772,-3.9883,-3.9883,-3.9883,0,0,-4.0331,-4.0306,-4.0281,-4.0226,-4.0201,-4.0158,-4.0182,-4.0136,-4.0103,-4.0109,-4.0049,-4.003,-3.9991,-3.9924,-3.9893,-3.9905,-3.9791,-3.9825,-3.982,-3.9816,-3.9776,-3.9766,-3.9756,-3.9879,-3.988,-3.9881,0,0,-4.0264,-4.0242,-4.0193,-4.0168,-4.0131,-4.0117,-4.0106,-4.0069,-4.0057,-3.9997,-4.0,-3.996,-3.9887,-3.9859,-3.9835,-3.9757,-3.976,-3.9744,-3.9707,-3.9667,-3.9659,-3.9651,-3.9621,-3.961,-3.9737,-3.9737,-3.9737,0,-4.0237,-4.0175,-4.0167,-4.012,-4.0095,-4.01,-4.005,-4.0025,-3.9976,-3.9957,-3.9973,-3.988,-3.9854,-3.978,-3.9761,-3.9742,-3.9727,-3.9747,-3.9661,-3.9653,-3.9645,-3.9616,-3.9605,-3.9735,-3.9735,-3.9736,-3.9736,0,-4.0143,-4.0099,-4.0064,-4.0017,-3.9988,-3.994,-3.9924,-3.9895,-3.9892,-3.9877,-3.9815,-3.9784,-3.9736,-3.9719,-3.9715,-3.9643,-3.9652,-3.9664,-3.969,-3.9633,-3.9606,-3.9595,-3.9732,-3.9733,-3.9734,-3.9734,0,0,-4.0059,-4.001,-3.9997,-3.9976,-3.9935,-3.99,-3.9852,-3.9806,-3.9781,-3.9747,-3.9704,-3.9642,-3.9653,-3.9626,-3.9619,-3.9585,-3.9522,-3.9601,-3.96,-3.9585,-3.9438,-3.9427,-3.9415,-3.9525,-3.9523,-3.9522,-3.9441,0,-3.9986,-3.9902,-3.9894,-3.9817,-3.9775,-3.978,-3.9737,-3.9707,-3.9691,-3.9652,-3.9634,-3.959,-3.9609,-3.9592,-3.9559,-3.9537,-3.9492,-3.9543,-3.9483,-3.9481,-3.949,-3.9401,-3.9389,-3.9314,-3.943,-3.9428,-3.9427,0,-3.9889,-3.9854,-3.9773,-3.9738,-3.972,-3.9682,-3.9639,-3.9602,-3.9567,-3.9558,-3.9528,-3.9526,-3.9474,-3.9504,-3.9431,-3.9466,-3.9441,-3.9426,-3.9423,-3.9415,-3.9448,-3.9387,-3.929,-3.9278,-3.9411,-3.9412,-3.9413,0,-3.9834,-3.9766,-3.9708,-3.969,-3.9648,-3.9621,-3.9602,-3.9569,-3.9542,-3.9504,-3.9486,-3.9442,-3.9417,-3.9382,-3.9368,-3.9392,-3.9294,-3.9324,-3.9283,-3.9283,-3.926,-3.9261,-3.9154,-3.9249,-3.9249,-3.9249,-3.9249,0,-3.9751,-3.9701,-3.9683,-3.9647,-3.959,-3.9581,-3.9525,-3.9507,-3.9478,-3.9437,-3.9439,-3.94,-3.9385,-3.9344,-3.9332,-3.9272,-3.9261,-3.9251,-3.9248,-3.9249,-3.925,-3.923,-3.9234,-3.9246,-3.9247,-3.9247,-3.9248,0,-3.9678,-3.9665,-3.9602,-3.9568,-3.9558,-3.9517,-3.9487,-3.9452,-3.9438,-3.9386,-3.9373,-3.935,-3.9301,-3.9284,-3.9225,-3.9217,-3.9146,-3.9149,-3.9158,-3.9156,-3.9115,-3.9118,-3.899,-3.8971,-3.908,-3.908,-3.9079,0,-3.9626,-3.9587,-3.9549,-3.9523,-3.9503,-3.9461,-3.9434,-3.9423,-3.9394,-3.9352,-3.9321,-3.9273,-3.9234,-3.9155,-3.9132,-3.9086,-3.9086,-3.9044,-3.9078,-3.908,-3.9081,-3.9083,-3.9078,-3.9036,-3.9035,-3.9034,-3.9034,0,-3.9532,-3.9527,-3.9489,-3.9447,-3.9414,-3.9381,-3.9348,-3.9326,-3.9311,-3.9278,-3.9229,-3.9199,-3.9139,-3.909,-3.9043,-3.9022,-3.9023,-3.9024,-3.9011,-3.901,-3.9016,-3.901,-3.9137,-3.9026,-3.9027,-3.9027,-3.9028,-3.9028,-3.9466,-3.9431,-3.9399,-3.9355,-3.933,-3.93,-3.9264,-3.9246,-3.9206,-3.9157,-3.9153,-3.9099,-3.9064,-3.9002,-3.8978,-3.8935,-3.8946,-3.8929,-3.8924,-3.8919,-3.8914,-3.9026,-3.8926,-3.8927,-3.8927,-3.8927,-3.8927,0,-3.937,-3.935,-3.931,-3.9265,-3.923,-3.9239,-3.9203,-3.9172,-3.9126,-3.9094,-3.9056,-3.8998,-3.8951,-3.8924,-3.8876,-3.8847,-3.8846,-3.8834,-3.8835,-3.8829,-3.8908,-3.8923,-3.8835,-3.8835,-3.8835,-3.8835,-3.8835,-3.8835,-3.9316,-3.9257,-3.9249,-3.9177,-3.9157,-3.9105,-3.9084,-3.9055,-3.9029,-3.8966,-3.8927,-3.8911,-3.888,-3.883,-3.8787,-3.878,-3.8761,-3.8747,-3.874,-3.8814,-3.8824,-3.8833,-3.8846,-3.8744,-3.8743,-3.8664,-3.8664,-3.8663]}]]